• în România
  • Lista ţărilor
  • Pe 7 zile
  • Temperatura apei
  • Hartă satelitară
  • Meteo pe hartă
  • Widget-uri
  • user-avatar
    Intrare

    Meteo pe oră la Proschenoe

    Astăzi, 25 Mai, Vineri

    Timp Temperatura Precipitaţii Vânt Presiune Umiditate
    00:00 +14°C° 0 mm 4 m/s 747 mmHg 87%
    01:00 +14°C° 0 mm 4 m/s 747 mmHg 87%
    02:00 +13°C° 0 mm 4 m/s 748 mmHg 87%
    03:00 +13°C° 0 mm 4 m/s 748 mmHg 92%
    04:00 +13°C° 0 mm 4 m/s 748 mmHg 92%
    05:00 +13°C° 0 mm 5 m/s 748 mmHg 91%
    06:00 +13°C° 0 mm 6 m/s 748 mmHg 91%
    07:00 +14°C° 0 mm 6 m/s 749 mmHg 86%
    08:00 +16°C° 0 mm 7 m/s 749 mmHg 80%
    09:00 +17°C° 0 mm 7 m/s 749 mmHg 74%
    10:00 +17°C° 0 mm 7 m/s 750 mmHg 70%
    11:00 +18°C° 0 mm 7 m/s 750 mmHg 66%
    12:00 +18°C° 0 mm 7 m/s 750 mmHg 62%
    13:00 +18°C° 0 mm 7 m/s 750 mmHg 59%
    14:00 +18°C° 0 mm 7 m/s 751 mmHg 57%
    15:00 +18°C° 0 mm 7 m/s 751 mmHg 54%
    16:00 +17°C° 0 mm 7 m/s 751 mmHg 56%
    17:00 +17°C° 0 mm 6 m/s 751 mmHg 58%
    18:00 +16°C° 0 mm 6 m/s 751 mmHg 60%
    19:00 +15°C° 0 mm 5 m/s 752 mmHg 63%
    20:00 +13°C° 0 mm 5 m/s 752 mmHg 65%
    21:00 +12°C° 0 mm 4 m/s 753 mmHg 68%
    22:00 +11°C° 0 mm 4 m/s 754 mmHg 67%
    23:00 +11°C° 0 mm 4 m/s 754 mmHg 66%

    Mâine, 26 Mai, Sâmbătă

    Timp Temperatura Precipitaţii Vânt Presiune Umiditate
    00:00 +10°C° 0 mm 4 m/s 755 mmHg 66%
    01:00 +8°C° 0 mm 4 m/s 755 mmHg 67%
    02:00 +8°C° 0 mm 4 m/s 756 mmHg 68%
    03:00 +7°C° 0 mm 4 m/s 756 mmHg 69%
    04:00 +7°C° 0 mm 4 m/s 757 mmHg 70%
    05:00 +7°C° 0 mm 4 m/s 757 mmHg 71%
    06:00 +7°C° 0 mm 4 m/s 758 mmHg 72%
    07:00 +8°C° 0 mm 4 m/s 758 mmHg 65%
    08:00 +11°C° 0 mm 4 m/s 758 mmHg 59%
    09:00 +12°C° 0 mm 5 m/s 759 mmHg 52%
    10:00 +13°C° 0 mm 5 m/s 759 mmHg 51%
    11:00 +14°C° 0 mm 5 m/s 759 mmHg 50%
    12:00 +14°C° 0 mm 5 m/s 759 mmHg 48%
    13:00 +15°C° 0 mm 5 m/s 759 mmHg 48%
    14:00 +15°C° 0 mm 4 m/s 759 mmHg 47%
    15:00 +17°C° 0 mm 4 m/s 759 mmHg 47%
    16:00 +17°C° 0 mm 4 m/s 759 mmHg 49%
    17:00 +16°C° 0 mm 3 m/s 758 mmHg 51%
    18:00 +16°C° 0 mm 3 m/s 758 mmHg 53%
    19:00 +15°C° 0 mm 2 m/s 758 mmHg 57%
    20:00 +13°C° 0 mm 2 m/s 758 mmHg 61%
    21:00 +11°C° 0 mm 1 m/s 759 mmHg 65%
    22:00 +11°C° 0 mm 1 m/s 759 mmHg 66%
    23:00 +10°C° 0 mm 1 m/s 759 mmHg 67%

    Poimâine, 27 Mai, Duminică

    Timp Temperatura Precipitaţii Vânt Presiune Umiditate
    00:00 +10°C° 0 mm 1 m/s 759 mmHg 68%
    01:00 +9°C° 0 mm 1 m/s 759 mmHg 69%
    02:00 +9°C° 0 mm 1 m/s 759 mmHg 70%
    03:00 +9°C° 0 mm 1 m/s 759 mmHg 71%
    04:00 +9°C° 0 mm 1 m/s 759 mmHg 72%
    05:00 +9°C° 0 mm 2 m/s 759 mmHg 73%
    06:00 +9°C° 0 mm 2 m/s 759 mmHg 74%
    07:00 +12°C° 0 mm 2 m/s 759 mmHg 69%
    08:00 +14°C° 0 mm 2 m/s 759 mmHg 63%
    09:00 +15°C° 0 mm 2 m/s 758 mmHg 58%
    10:00 +16°C° 0 mm 3 m/s 758 mmHg 55%
    11:00 +17°C° 0 mm 3 m/s 758 mmHg 52%
    12:00 +18°C° 0 mm 3 m/s 757 mmHg 49%
    13:00 +19°C° 0 mm 3 m/s 757 mmHg 50%
    14:00 +19°C° 0 mm 4 m/s 756 mmHg 50%
    15:00 +20°C° 0 mm 4 m/s 755 mmHg 51%
    16:00 +19°C° 0 mm 4 m/s 755 mmHg 55%
    17:00 +19°C° 0 mm 4 m/s 754 mmHg 59%
    18:00 +19°C° 0 mm 4 m/s 753 mmHg 63%
    19:00 +17°C° 0 mm 4 m/s 753 mmHg 67%
    20:00 +15°C° 0 mm 4 m/s 753 mmHg 72%
    21:00 +13°C° 0 mm 4 m/s 753 mmHg 77%
    22:00 +13°C° 0 mm 4 m/s 753 mmHg 77%
    23:00 +12°C° 0 mm 4 m/s 753 mmHg 77%

    28 Mai, Luni

    Timp Temperatura Precipitaţii Vânt Presiune Umiditate
    00:00 +12°C° 0 mm 4 m/s 753 mmHg 77%
    01:00 +12°C° 0 mm 4 m/s 753 mmHg 79%
    02:00 +12°C° 0 mm 3 m/s 753 mmHg 80%
    03:00 +12°C° 0 mm 3 m/s 754 mmHg 82%
    04:00 +12°C° 0 mm 3 m/s 754 mmHg 83%
    05:00 +12°C° 0 mm 3 m/s 754 mmHg 83%
    06:00 +12°C° 0 mm 3 m/s 754 mmHg 83%
    07:00 +13°C° 0 mm 3 m/s 755 mmHg 75%
    08:00 +14°C° 0 mm 3 m/s 755 mmHg 67%
    09:00 +17°C° 0 mm 4 m/s 755 mmHg 59%
    10:00 +17°C° 0 mm 4 m/s 756 mmHg 57%
    11:00 +18°C° 0 mm 4 m/s 756 mmHg 54%
    12:00 +17°C° 0 mm 5 m/s 756 mmHg 51%
    13:00 +17°C° 0 mm 5 m/s 756 mmHg 50%
    14:00 +19°C° 0 mm 5 m/s 756 mmHg 49%
    15:00 +19°C° 0 mm 5 m/s 756 mmHg 48%
    16:00 +18°C° 0 mm 4 m/s 756 mmHg 51%
    17:00 +18°C° 0 mm 4 m/s 756 mmHg 54%
    18:00 +17°C° 0 mm 4 m/s 756 mmHg 57%
    19:00 +16°C° 0 mm 3 m/s 756 mmHg 60%
    20:00 +13°C° 0 mm 3 m/s 756 mmHg 63%
    21:00 +12°C° 0 mm 2 m/s 756 mmHg 67%
    22:00 +10°C° 0 mm 2 m/s 757 mmHg 67%
    23:00 +10°C° 0 mm 2 m/s 757 mmHg 67%

    29 Mai, Marţi

    Timp Temperatura Precipitaţii Vânt Presiune Umiditate
    00:00 +9°C° 0 mm 2 m/s 757 mmHg 67%
    01:00 +10°C° 0 mm 1 m/s 757 mmHg 68%
    02:00 +9°C° 0 mm 1 m/s 757 mmHg 69%
    03:00 +9°C° 0 mm 1 m/s 757 mmHg 70%
    04:00 +9°C° 0 mm 1 m/s 757 mmHg 70%
    05:00 +10°C° 0 mm 1 m/s 757 mmHg 70%
    06:00 +11°C° 0 mm 1 m/s 757 mmHg 71%
    07:00 +13°C° 0 mm 2 m/s 757 mmHg 65%
    08:00 +14°C° 0 mm 2 m/s 757 mmHg 60%
    09:00 +16°C° 0 mm 3 m/s 757 mmHg 55%
    10:00 +17°C° 0 mm 3 m/s 757 mmHg 52%
    11:00 +18°C° 0 mm 3 m/s 756 mmHg 50%
    12:00 +20°C° 0 mm 3 m/s 756 mmHg 47%
    13:00 +20°C° 0 mm 3 m/s 756 mmHg 47%
    14:00 +21°C° 0 mm 3 m/s 755 mmHg 47%
    15:00 +21°C° 0 mm 3 m/s 755 mmHg 47%
    16:00 +21°C° 0 mm 3 m/s 754 mmHg 51%
    17:00 +21°C° 0 mm 3 m/s 754 mmHg 55%
    18:00 +21°C° 0 mm 2 m/s 753 mmHg 59%
    19:00 +19°C° 0 mm 2 m/s 753 mmHg 62%
    20:00 +17°C° 0 mm 2 m/s 753 mmHg 66%
    21:00 +15°C° 0 mm 2 m/s 752 mmHg 70%
    22:00 +14°C° 0 mm 3 m/s 752 mmHg 71%
    23:00 +13°C° 0 mm 3 m/s 752 mmHg 72%

    30 Mai, Miercuri

    Timp Temperatura Precipitaţii Vânt Presiune Umiditate
    00:00 +12°C° 0 mm 3 m/s 752 mmHg 74%
    01:00 +12°C° 0 mm 3 m/s 751 mmHg 74%
    02:00 +12°C° 0 mm 3 m/s 751 mmHg 75%
    03:00 +11°C° 0 mm 4 m/s 751 mmHg 76%
    04:00 +12°C° 0 mm 4 m/s 750 mmHg 78%
    05:00 +12°C° 0 mm 4 m/s 750 mmHg 79%
    06:00 +13°C° 0 mm 4 m/s 750 mmHg 81%
    07:00 +15°C° 0 mm 5 m/s 749 mmHg 78%
    08:00 +17°C° 0 mm 5 m/s 749 mmHg 76%
    09:00 +20°C° 0 mm 5 m/s 749 mmHg 73%
    10:00 +21°C° 0 mm 6 m/s 748 mmHg 69%
    11:00 +22°C° 0 mm 6 m/s 748 mmHg 64%
    12:00 +23°C° 0 mm 7 m/s 747 mmHg 60%
    13:00 +24°C° 0 mm 7 m/s 747 mmHg 59%
    14:00 +24°C° 0 mm 7 m/s 746 mmHg 58%
    15:00 +24°C° 0 mm 7 m/s 746 mmHg 58%
    16:00 +24°C° 0 mm 6 m/s 745 mmHg 61%
    17:00 +25°C° 0 mm 5 m/s 745 mmHg 64%
    18:00 +25°C° 0 mm 4 m/s 745 mmHg 67%
    19:00 +22°C° 0 mm 4 m/s 744 mmHg 71%
    20:00 +20°C° 0 mm 4 m/s 744 mmHg 76%
    21:00 +19°C° 0 mm 4 m/s 744 mmHg 80%
    22:00 +18°C° 0 mm 4 m/s 744 mmHg 82%
    23:00 +18°C° 0 mm 4 m/s 744 mmHg 84%
    Arată mai mult